Weather History for Hamilton Airport, Ontario

Change the Weather History Date:

Wednesday, August 7, 2013

  Actual Average Record
Temperature  
Mean Temperature 72 °F -  
Max Temperature 79 °F 76 °F - ()
Min Temperature 65 °F 56 °F - ()
Cooling Degree Days 7    
Growing Degree Days 22 (Base 50)    
Moisture  
Dew Point 64 °F    
Average Humidity 80    
Maximum Humidity 94    
Minimum Humidity 63    
Precipitation  
Precipitation 0.04 in 0.11 in - ()
Sea Level Pressure  
Sea Level Pressure 29.91 in    
Wind  
Wind Speed 10 mph ()    
Max Wind Speed 20 mph    
Max Gust Speed 28 mph    
Visibility 14.1 miles    
Events Rain    
T = Trace of Precipitation, MM = Missing Value Source: Averaged Metar Reports

Daily Weather History Graph

Daily Weather History Graph

Search for Another Location

Airport:

Trip Planner

Search our weather history database for the weather conditions in past years. The results will help you decide how hot, cold, wet, or windy it might be!

Date:

Astronomy

Aug. 07, 2013 Rise Set
Actual Time 6:16 AM EDT 8:33 PM EDT
Civil Twilight 5:45 AM EDT 9:04 PM EDT
Nautical Twilight 5:05 AM EDT 9:43 PM EDT
Astronomical Twilight 4:22 AM EDT 10:27 PM EDT
Moon 7:06 AM EDT (8/7) 8:35 PM EDT (8/7)
Length of Visible Light 15h 19m
Length of Day
14h 16m
New Moon, 1% of the Moon is Illuminated
Aug 7
New Moon
Aug 14
First Quarter
Aug 20
Full
Aug 28
Last Quarter
Sep 5
New

Hourly Weather History & Observations

Time (EDT) Temp. Dew Point Humidity Pressure Visibility Wind Dir Wind Speed Gust Speed Precip Events Conditions
12:00 AM 68.0 °F 57.2 °F 68% 29.97 in 15.0 mi ESE 5.8 mph - N/A   Mostly Cloudy
1:00 AM 68.0 °F 59.0 °F 73% 29.96 in 15.0 mi SE 5.8 mph - N/A   Mostly Cloudy
2:00 AM 68 °F 58 °F 63% 29.96 in 15 mi SE 6.9 mph - -   Partly Cloudy
2:00 AM 68.0 °F 57.2 °F 68% 29.96 in 15.0 mi SSE 5.8 mph - N/A   Mostly Cloudy
3:00 AM 66.2 °F 60.8 °F 83% 29.95 in 15.0 mi SSE 9.2 mph - N/A   Overcast
4:00 AM 66.2 °F 60.8 °F 83% 29.94 in 15.0 mi South 8.1 mph - N/A   Scattered Clouds
5:00 AM 66.2 °F 62.6 °F 88% 29.93 in 15.0 mi South 12.7 mph - N/A   Scattered Clouds
6:00 AM 66.2 °F 62.6 °F 88% 29.93 in 15.0 mi South 10.4 mph 17.3 mph N/A   Mostly Cloudy
7:00 AM 66.2 °F 62.6 °F 88% 29.94 in 15.0 mi South 11.5 mph - N/A   Mostly Cloudy
8:00 AM 69 °F 64 °F 79% 29.94 in 15 mi South 13.8 mph - -   Scattered Clouds
8:00 AM 69.8 °F 64.4 °F 83% 29.93 in 15.0 mi South 12.7 mph 20.7 mph N/A   Mostly Cloudy
9:00 AM 69.8 °F 64.4 °F 83% 29.92 in 15.0 mi South 17.3 mph 24.2 mph N/A   Overcast
10:00 AM 71.6 °F 64.4 °F 78% 29.93 in 15.0 mi South 12.7 mph - N/A   Overcast
10:42 AM 69.8 °F 64.4 °F 83% 29.94 in 10.0 mi SSW 16.1 mph 24.2 mph N/A Rain Light Rain Showers
10:50 AM 68.0 °F 64.4 °F 88% 29.94 in 4.0 mi SSW 11.5 mph 25.3 mph N/A Rain Light Rain Showers
11:00 AM 68.0 °F 64.4 °F 88% 29.94 in 12.0 mi SSW 9.2 mph - N/A Rain Light Rain Showers
11:45 AM 69.8 °F 66.2 °F 88% 29.93 in 15.0 mi SSW 12.7 mph - N/A   Overcast
12:00 PM 69.8 °F 66.2 °F 88% 29.92 in 10.0 mi SSW 11.5 mph 18.4 mph N/A   Overcast
1:00 PM 73.4 °F 66.2 °F 78% 29.89 in 12.0 mi South 16.1 mph 24.2 mph N/A   Overcast
2:00 PM 74 °F 67 °F 72% 29.89 in 15 mi SSW 15.0 mph - -   Partly Cloudy
2:00 PM 73.4 °F 66.2 °F 78% 29.89 in 15.0 mi SSW 13.8 mph 21.9 mph N/A   Mostly Cloudy
3:00 PM 73.4 °F 66.2 °F 78% 29.89 in 15.0 mi SSW 11.5 mph 20.7 mph N/A   Mostly Cloudy
4:00 PM 77.0 °F 68.0 °F 74% 29.87 in 15.0 mi SSW 18.4 mph 25.3 mph N/A   Mostly Cloudy
5:00 PM 78.8 °F 68.0 °F 69% 29.86 in 15.0 mi SW 19.6 mph 27.6 mph N/A   Mostly Cloudy
6:00 PM 78.8 °F 68.0 °F 69% 29.86 in 15.0 mi SW 16.1 mph - N/A   Partly Cloudy
7:00 PM 77.0 °F 68.0 °F 74% 29.84 in 15.0 mi SW 17.3 mph - N/A   Partly Cloudy
8:00 PM 74 °F 68 °F 77% 29.86 in 15 mi SW 12.7 mph - -   Scattered Clouds
8:00 PM 75.2 °F 68.0 °F 78% 29.86 in 15.0 mi SW 11.5 mph - N/A   Partly Cloudy
9:00 PM 71.6 °F 68.0 °F 88% 29.88 in 15.0 mi SSW 9.2 mph - N/A   Mostly Cloudy
10:00 PM 69.8 °F 66.2 °F 88% 29.90 in 15.0 mi SW 8.1 mph - N/A   Mostly Cloudy
11:00 PM 68.0 °F 66.2 °F 94% 29.91 in 15.0 mi West 4.6 mph - N/A Rain Light Rain Showers